This is the latest recevied weather packets stored in our database for station/object N1UNH. If no packets are shown the sender has not sent any weather packets the latest 10 day(s).
| Time | Temp. | Humidity | Pressure | Rain* | Wind** | Luminosity | Snow |
|---|---|---|---|---|---|---|---|
| 1777466432 | 8.89° C | 66% | 1023.5 hPa | 0 mm | - | 53 W/m² | - |
| 1777466127 | 8.89° C | 66% | 1023.6 hPa | 0 mm | - | 61 W/m² | - |
| 1777465824 | 9.44° C | 67% | 1023.7 hPa | 0 mm | - | 51 W/m² | - |
| 1777465520 | 9.44° C | 67% | 1023.9 hPa | 0 mm | - | 52 W/m² | - |
| 1777465214 | 8.89° C | 67% | 1023.8 hPa | 0 mm | - | 83 W/m² | - |
| 1777464909 | 8.89° C | 67% | 1023.9 hPa | 0 mm | - | 113 W/m² | - |
| 1777464605 | 8.89° C | 68% | 1024.1 hPa | 0 mm | - | 118 W/m² | - |
| 1777464301 | 8.89° C | 67% | 1024.1 hPa | 0 mm | - | 113 W/m² | - |
| 1777463996 | 8.89° C | 67% | 1024 hPa | 0 mm | - | 106 W/m² | - |
| 1777463691 | 8.89° C | 67% | 1023.8 hPa | 0 mm | - | 109 W/m² | - |
| 1777463386 | 8.89° C | 68% | 1023.8 hPa | 0 mm | - | 92 W/m² | - |
| 1777463083 | 8.89° C | 68% | 1023.9 hPa | 0 mm | - | 97 W/m² | - |
| 1777462779 | 8.89° C | 68% | 1024 hPa | 0 mm | - | 88 W/m² | - |
| 1777462474 | 8.33° C | 67% | 1024 hPa | 0 mm | - | 82 W/m² | - |
| 1777462171 | 8.33° C | 67% | 1023.8 hPa | 0 mm | - | 72 W/m² | - |
| 1777461867 | 8.33° C | 67% | 1023.8 hPa | 0 mm | - | 60 W/m² | - |
| 1777461564 | 8.33° C | 66% | 1024 hPa | 0 mm | - | 57 W/m² | - |
| 1777461260 | 7.78° C | 66% | 1023.7 hPa | 0 mm | - | 58 W/m² | - |
| 1777460955 | 7.78° C | 66% | 1023.7 hPa | 0 mm | - | 53 W/m² | - |
| 1777460651 | 7.78° C | 66% | 1023.5 hPa | 0 mm | - | 45 W/m² | - |
| 1777460346 | 7.78° C | 65% | 1023.6 hPa | 0 mm | - | 43 W/m² | - |
| 1777460043 | 7.78° C | 65% | 1023.6 hPa | 0 mm | - | 37 W/m² | - |
| 1777459740 | 7.78° C | 65% | 1023.7 hPa | 0 mm | - | 29 W/m² | - |
| 1777459436 | 7.78° C | 65% | 1023.6 hPa | 0 mm | - | 24 W/m² | - |
| 1777459135 | 7.78° C | 65% | 1023.8 hPa | 0 mm | - | 21 W/m² | - |
* Rain latest hour (hover to see other rain measurements)
** Current wind speed in m/s (hover to see current wind gust speed)